Find Beidou DW 31

NORAD ID: 43246 Int'l Des: 2018-029 Owner: CNSA Country: CN Constellation: BeiDou operational
MEOCIRCULAR

当前视图

正在加载3D地球...

About Beidou DW 31

Beidou DW 31 (NORAD 43246) is a BeiDou constellation satellite launched Mar 29, 2018 by CNSA of CN. It operates in MEO, CIRCULAR orbit with a mass of 1014.00 kg.

关于 Beidou DW 31

正在加载描述...

即将过境

Passes for default location (London). Set your location on the main map for personalized predictions.

高度历史

Loading altitude history...

两行轨道根数

1 43246U 18029B 26194.73089561 -.00000062 00000-0 00000+0 0 9998
2 43246 54.1659 299.0468 0003296 37.0559 322.9969 1.86229199 56376
Epoch: Jul 13, 2026 • Age: 17 hours

当前状态

高度 21532.0 km
远地点 / 近地点 N/A
速度 3.78 km/s
星下点 50.12°N, 27.74°W
发射日期 Mar 29, 2018
运行时间 8.2 years
类型 navigation

发射组

Unknown Vehicle • BeiDou Launch 28 • 2 satellites

技术详情

分类 Payload
质量 1014.00 kg
干质量 850.00 kg
总质量 1014.00 kg
长度 2.20 m
直径 1.70 m
跨度 10.00 m
形状 Box + 2 Pan
制造商 SECM
平台类型 BD-3M2
阶段状态 In Orbit
所有者/国家 CNSA/CN

Most Searched